Location: Shepherdstown, WV
(39.4326°N, 77.8042°W)
Time: 03:34:24
(UTC-04:00)

Vanguard 3 - Pass Details

Date: 11 August 2021
Orbit: 510 x 3260 km, 33.3° (Epoch: 21 September)

Event Time Altitude Azimuth Distance (km) Brightness Sun altitude
Rises 00:37:04 0° 272° (W) 6,907 12.0 -34.6°
Reaches altitude 10° 00:45:45 10° 251° (WSW) 6,154 11.5 -34.9°
Maximum altitude 00:53:02 13° 229° (SW) 5,900 11.2 -35.1°
Enters shadow 00:53:27 13° 227° (SW) 5,897 11.2 -35.1°
Drops below altitude 10° 01:00:17 10° 206° (SSW) 6,037 - -35.2°
Sets 01:08:50 0° 183° (S) 6,659 - -35.3°
